Flag for Mauritania Weather past 2 weeks in Nouadhibou, Mauritania

Now
68 °F

Clear.


Feels Like: 68 °F
Forecast: N/A
Wind: 12 mph from Northeast

Location: Nouadhibou Airport

Current Time: Jan 27, 2015 at 9:08:10 PM

Latest Report: Jan 27, 2015 at 8:00 PM


Visibility: 4 mi

Pressure: 30.12 "Hg

Humidity: 40%

Dew point: 43 °F

Location of NouadhibouLocation

Historic Weather in Nouadhibou — Graph

°F

Nouadhibou temperature yesterday

Maximum temperature yesterday: 79 °F (at 4:00 PM)
Minimum temperature yesterday: 59 °F (at 2:00 AM)
Average temperature yesterday: 66 °F

Past Weeks' High & Low Weather Summary

 TemperatureHumidityPressure
High82 °F (Jan 16, 3:00 PM)94% (Jan 12, 11:00 PM)30.24 "Hg (Jan 12, 11:00 PM)
Low54 °F (Jan 18, 7:00 AM)16% (Jan 16, 3:00 PM)29.98 "Hg (Jan 14, 3:00 PM)
Average64 °F63%30.09 "Hg
* Reported Jan 12 8:00 PM — Jan 27 8:00 PM, Nouadhibou, Weather by CustomWeather, © 2014

Note: Actual official high and low records may vary slightly from our data, if they occured in-between our weather recording intervals... More about our weather records

Advertising

Nouadhibou weather history for previous 24 hours

 ConditionsComfort  
Time TempWeatherWind HumidityBarometerVisibility
8:00 PM
Jan 27
68 °FClear.12 mph40%30.12 "Hg4 mi
7:00 PM70 °FClear.12 mph40%30.12 "Hg4 mi
6:00 PM72 °FClear.14 mph38%30.09 "Hg4 mi
5:00 PM72 °FClear.14 mph41%30.09 "Hg4 mi
4:00 PM73 °FClear.18 mph31%30.09 "Hg4 mi
3:00 PM75 °FClear.18 mph27%30.12 "Hg4 mi
2:00 PM75 °FClear.18 mph25%30.15 "Hg4 mi
1:00 PM73 °FClear.16 mph29%30.18 "Hg4 mi
12:00 PM72 °FClear.14 mph31%30.21 "Hg5 mi
11:00 AM68 °FClear.12 mph35%30.24 "Hg5 mi
10:00 AM66 °FClear.14 mph35%30.21 "Hg5 mi
9:00 AM64 °FClear.13 mph37%30.18 "Hg4 mi
8:00 AM63 °FClear.16 mph39%30.18 "Hg4 mi
7:00 AM64 °FClear.16 mph40%30.15 "Hg4 mi
6:00 AM64 °FClear.14 mph46%30.15 "Hg4 mi
5:00 AM66 °FClear.14 mph40%30.15 "Hg4 mi
4:00 AM64 °FClear.12 mph46%30.15 "Hg4 mi
3:00 AM66 °FClear.12 mph43%30.15 "Hg4 mi
2:00 AM66 °FClear.14 mph40%30.15 "Hg4 mi
1:00 AM68 °FClear.14 mph40%30.15 "Hg4 mi
12:00 AM66 °FClear.12 mph46%30.15 "Hg4 mi
11:00 PM
Jan 26
66 °FDuststorm.9 mph49%30.15 "Hg4 mi
10:00 PM68 °FDuststorm.9 mph49%30.15 "Hg4 mi
9:00 PM68 °FDuststorm.9 mph46%30.12 "Hg3 mi
Weather by CustomWeather, © 2014

See weather overviewHow to use our weather pages